Zurück zum Katalog

CZ-6A DEB

AktivPO
NORAD 55556·DEBRIS·🇨🇳 China

Gestartet Nov 11, 2022 von Taiyuan Satellite Launch Center

Loading…

Nächste Überflüge (nächste 24 Stunden)

TLE

AktuellSource: Space-Track

Epoche: Sep 14, 2026, 04:03 UTC

1 55556U 22151ZE  26257.16918592  .00009640  00000-0  12825-2 0  9999
2 55556  98.6255 334.0039 0061960 349.1516  10.8353 14.78598608203580

Verfolge CZ-6A DEB in Echtzeit mit AllMySat

Download on the App Store